sat.trackr.live / text

‹ back to catalog

STARLINK-35098

NORAD 65476 · 2025-195U

PAYLOAD ACTIVE UNKNOWN

§ Identity

Operator
Country
US
Launch date
2025-09-03
Launch site
AFETR
Launch vehicle
Mass (kg)
RCS (m²)

Purposes: comms

External: N2YO · Heavens-Above · Gunter

§ Orbital elements

Epoch: 2026-05-24T20:21:43.678944Z

Period
94.01 min
Inclination
53.1576°
Eccentricity
0.0001504
Mean motion
15.31721572 rev/d
Perigee alt
469.6 km
Apogee alt
471.7 km
Semi-major
6,848.8 km
B*
8.5170e-4
RAAN
263.7424°
Arg perigee
80.5062°
Mean anomaly
279.6109°
Rev number
4,164

§ Raw data

STARLINK-350981 65476U 25195U   26144.84842221  .00026175  00000+0  85170-3 0  99922 65476  53.1576 263.7424 0001504  80.5062 279.6109 15.31721572 41649

JSON: /api/v1/satellites/65476 · /tle

For live sub-satellite position, see the globe view (requires WebGL).

§ Visibility from observer

Set your observer location to see the next 7 days of passes ≥ 10°. The values pass through the URL so the page stays shareable.

No JS? Fill the form by hand. The geolocation button needs JavaScript.